Location: *
(50.5492°N, 7.7469°E)
Time: 20:03:10
(UTC+00:00)

SJ 16-02 - Pass Details

Date: 21 October 2019
Orbit: 607 x 616 km, 75.0° (Epoch: 12 November)

Event Time Altitude Azimuth Distance (km) Brightness Sun altitude
Rises 18:18:53 0° 341° (NNW) 2,883 5.1 -18.7°
Reaches altitude 10° 18:21:13 10° 347° (NNW) 1,973 4.2 -19.0°
Maximum altitude 18:25:28 48° 62° (ENE) 805 1.5 -19.7°
Enters shadow 18:25:45 47° 75° (ENE) 813 1.5 -19.7°
